E25WPV-13 Weather Reports


time (UTC)temp
F
wind
direction
speed
knots
gust
knots
rain 1hr
in
rain 24hr
in
rain mn
in
humidity
%
barometer
mb
20260901044246 0 259 1.7 5.2 0.00 0.00 0.08 74 1016.2
20260901043926 0 293 3.5 5.2 0.00 0.00 0.08 73 1016.2
20260901043605 0 271 1.7 3.5 0.00 0.00 0.08 75 1016.0
20260901043246 0 280 6.1 10.4 0.00 0.00 0.08 73 1016.3
20260901042926 0 166 6.1 7.8 0.00 0.00 0.08 73 1016.1
20260901042606 0 217 6.1 9.6 0.00 0.00 0.08 72 1016.3
20260901041927 0 224 3.5 6.1 0.00 0.00 0.08 73 1016.4
20260901041606 0 230 5.2 7.0 0.00 0.00 0.08 74 1016.3
20260901041246 0 173 5.2 7.0 0.00 0.00 0.08 73 1016.4
20260901040926 0 255 2.6 4.3 0.00 0.00 0.08 73 1016.3
20260901040605 0 251 3.5 5.2 0.00 0.00 0.08 72 1016.3
20260901040246 0 226 1.7 3.5 0.00 0.00 0.08 74 1016.5
20260901035925 0 248 4.3 5.2 0.00 0.00 0.08 74 1016.6
20260901035605 0 209 8.7 9.6 0.00 0.00 0.08 74 1016.5
20260901034926 0 237 6.1 10.4 0.00 0.00 0.08 73 1016.7
20260901034605 0 240 2.6 4.3 0.00 0.00 0.08 75 1016.5
20260901034245 0 193 2.6 5.2 0.00 0.00 0.08 74 1016.5
20260901033925 0 223 1.7 3.5 0.00 0.00 0.08 76 1016.5
20260901033604 0 177 2.6 7.0 0.00 0.00 0.08 75 1016.7
20260901033244 0 220 5.2 8.7 0.00 0.00 0.08 74 1016.7
20260901032924 0 180 2.6 3.5 0.00 0.00 0.08 76 1016.7
20260901032604 0 196 6.1 9.6 0.00 0.00 0.08 75 1016.8
20260901031925 0 226 7.0 9.6 0.00 0.00 0.08 75 1016.7
20260901031604 0 233 5.2 7.8 0.00 0.00 0.08 76 1016.6
20260901031244 0 230 3.5 6.1 0.00 0.00 0.08 77 1016.5
20260901030924 0 266 4.3 6.1 0.00 0.00 0.08 75 1016.8
20260901030604 0 228 1.7 3.5 0.00 0.00 0.08 77 1016.6
20260901030244 0 184 2.6 3.5 0.00 0.00 0.08 78 1016.8
20260901025923 0 0 0.0 0.0 0.00 0.00 0.00 14.5
20260901025603 0 357 4.3 7.0 0.00 0.00 0.08 75 1016.5
20260901024924 0 229 2.6 4.3 0.00 0.00 0.08 76 1016.6
20260901024604 0 205 4.3 6.1 0.00 0.00 0.08 75 1016.8
20260901024244 0 207 4.3 6.1 0.00 0.00 0.08 76 1016.5
20260901023924 0 229 4.3 5.2 0.00 0.00 0.08 75 1016.5
20260901023603 0 254 4.3 7.0 0.00 0.00 0.08 76 1016.6
20260901023243 0 188 1.7 2.6 0.00 0.00 0.08 77 1016.4
20260901022923 0 260 2.6 4.3 0.00 0.00 0.08 75 1016.7
20260901022603 0 236 7.0 7.8 0.00 0.00 0.08 76 1016.4
20260901021924 0 246 3.5 6.1 0.00 0.00 0.08 76 1016.2
20260901021603 0 253 1.7 3.5 0.00 0.00 0.08 79 1016.4
20260901021243 0 197 7.8 11.3 0.00 0.00 0.08 77 1016.5
20260901020923 0 210 1.7 1.7 0.00 0.00 0.08 79 1016.4
20260901020602 0 204 1.7 5.2 0.00 0.00 0.08 79 1016.2
20260901020242 0 0 0.0 0.0 0.00 0.00 0.00 14.5
20260901015922 0 244 3.5 5.2 0.00 0.00 0.08 81 1016.1
20260901015602 0 184 1.7 2.6 0.00 0.00 0.08 82 1016.2
20260901014924 0 261 5.2 7.0 0.00 0.00 0.08 80 1016.0
20260901014602 0 173 4.3 7.0 0.00 0.00 0.08 81 1015.7
20260901014243 0 182 2.6 4.3 0.00 0.00 0.08 81 1015.8
20260901013923 0 203 0.9 2.6 0.00 0.00 0.08 82 1016.1
20260901013601 0 268 2.6 3.5 0.00 0.00 0.08 81 1015.8
20260901013241 0 255 3.5 6.1 0.00 0.00 0.08 82 1015.9
20260901012921 0 194 1.7 1.7 0.00 0.00 0.08 83 1015.9
20260901012601 0 248 1.7 2.6 0.00 0.00 0.08 83 1015.6
20260901011923 0 197 2.6 4.3 0.00 0.00 0.08 85 1015.8
20260901011602 0 231 0.9 0.9 0.00 0.00 0.08 85 1015.6
20260901011242 0 190 0.9 1.7 0.00 0.00 0.08 85 1015.9
20260901010922 0 251 0.9 1.7 0.00 0.00 0.08 85 1015.7
20260901010601 0 204 4.3 7.0 0.00 0.00 0.08 85 1015.4
20260901010241 0 227 3.5 4.3 0.00 0.00 0.08 85 1015.4
20260901005920 0 272 0.9 1.7 0.00 0.00 0.08 85 1015.5
20260901005600 0 240 3.5 4.3 0.00 0.00 0.08 86 1015.6
20260901004921 0 195 0.9 1.7 0.00 0.00 0.08 87 1015.4
20260901004600 0 315 0.0 0.9 0.00 0.00 0.08 86 1015.3
20260901004241 0 173 0.0 0.9 0.00 0.00 0.08 86 1015.3
20260901003921 0 335 0.0 0.0 0.00 0.00 0.08 87 1015.3
20260901003600 0 191 2.6 3.5 0.00 0.00 0.08 86 1015.2
20260901003240 0 246 3.5 4.3 0.00 0.00 0.08 86 1015.5
20260901002920 0 195 1.7 1.7 0.00 0.00 0.08 87 1015.2
20260901002559 0 165 0.9 1.7 0.00 0.00 0.08 88 1015.2
20260901001922 0 249 1.7 2.6 0.00 0.00 0.08 87 1015.1
20260901001601 0 258 2.6 4.3 0.00 0.00 0.08 87 1015.1
20260901001241 0 188 0.0 0.0 0.00 0.00 0.08 88 1014.9
20260901000921 0 250 1.7 2.6 0.00 0.00 0.08 88 1015.0
20260901000559 0 234 0.9 1.7 0.00 0.00 0.08 88 1014.9
20260901000241 0 277 0.0 0.0 0.00 0.00 0.08 88 1014.8
20260831235919 0 232 0.0 0.0 0.00 0.00 0.08 88 1015.0
20260831235559 0 230 1.7 1.7 0.00 0.00 0.08 89 1014.8
20260831234921 0 214 0.0 0.9 0.00 0.00 0.08 89 1014.9
20260831234600 0 204 0.0 0.0 0.00 0.00 0.08 89 1014.7
20260831234239 0 190 0.9 0.9 0.00 0.00 0.08 89 1014.6
20260831233919 0 215 0.0 0.0 0.00 0.00 0.08 90 1014.8
20260831233558 0 207 0.0 0.9 0.00 0.00 0.08 90 1014.7
20260831233239 0 226 2.6 3.5 0.00 0.00 0.08 90 1014.6
20260831232918 0 230 0.9 2.6 0.00 0.00 0.08 90 1014.7
20260831232558 0 192 0.0 0.0 0.00 0.00 0.08 90 1014.6
20260831231919 0 273 0.0 0.0 0.00 0.00 0.08 90 1014.7
20260831231558 0 171 0.0 0.9 0.00 0.00 0.08 90 1014.6
20260831231238 0 216 0.0 0.9 0.00 0.00 0.08 90 1014.7
20260831230918 0 180 0.0 0.0 0.00 0.00 0.08 90 1014.6
20260831230558 0 215 0.9 1.7 0.00 0.00 0.08 90 1014.7
20260831230238 0 198 0.9 1.7 0.00 0.00 0.08 91 1014.6
20260831225918 0 188 0.0 0.9 0.00 0.00 0.08 91 1014.4
20260831225600 0 203 0.9 0.9 0.00 0.00 0.08 90 1014.7
20260831224920 0 222 0.9 1.7 0.00 0.00 0.08 91 1014.8
20260831224558 0 190 0.0 0.0 0.00 0.00 0.08 91 1014.8
20260831224238 0 175 0.0 0.0 0.00 0.00 0.08 91 1014.5
20260831223919 0 173 0.9 1.7 0.00 0.00 0.08 91 1014.5
20260831223557 0 169 0.0 0.0 0.00 0.00 0.08 91 1014.6
20260831223237 0 172 0.0 0.9 0.00 0.00 0.08 90 1014.7
20260831222917 0 214 0.9 0.9 0.00 0.00 0.08 90 1014.6
20260831222557 0 182 0.9 1.7 0.00 0.00 0.08 91 1014.6
20260831221920 0 209 0.0 0.0 0.00 0.00 0.08 91 1014.8
20260831221559 0 194 0.0 0.0 0.00 0.00 0.08 91 1014.7
20260831221239 0 199 0.0 0.9 0.00 0.00 0.08 91 1014.8
20260831220918 0 201 0.9 1.7 0.00 0.00 0.08 91 1014.5
20260831220558 0 195 0.0 0.0 0.00 0.00 0.08 91 1014.6
20260831220238 0 201 0.0 0.0 0.00 0.00 0.08 91 1014.7
20260831215918 0 172 0.0 0.0 0.00 0.01 0.08 91 1014.5
20260831215558 0 194 0.0 0.0 0.00 0.01 0.08 91 1014.5
20260831214917 0 167 0.0 0.0 0.00 0.01 0.08 90 1014.6
20260831214556 0 207 0.0 0.0 0.00 0.01 0.08 90 1014.7
20260831214236 0 308 0.0 0.0 0.00 0.01 0.08 90 1014.7
20260831213916 0 302 0.0 0.0 0.00 0.01 0.08 90 1014.4
20260831213556 0 299 0.0 0.0 0.00 0.01 0.08 90 1014.6
20260831213236 0 288 0.0 0.0 0.00 0.01 0.08 90 1014.4
20260831212915 0 178 0.0 0.0 0.00 0.01 0.08 90 1014.4
20260831212555 0 173 0.0 0.0 0.00 0.01 0.08 90 1014.4
20260831211918 0 184 0.0 0.9 0.00 0.01 0.08 91 1014.3
20260831211557 0 207 0.0 0.0 0.00 0.01 0.08 91 1014.3
20260831211237 0 173 0.0 0.0 0.07 0.01 0.08 91 1014.1
20260831210917 0 199 0.0 0.9 0.07 0.01 0.08 91 1014.3
20260831210555 0 168 0.0 0.0 0.07 0.01 0.08 91 1014.4
20260831210236 0 204 0.9 1.7 0.00 0.00 0.07 92 1014.2
20260831205914 0 175 0.0 0.0 0.00 0.00 0.07 92 1014.4
20260831205554 0 160 0.0 0.0 0.00 0.00 0.07 92 1014.1
20260831204916 0 170 0.0 0.0 0.00 0.00 0.07 93 1014.2
20260831204555 0 165 0.0 0.0 0.00 0.00 0.07 93 1014.1
20260831204235 0 168 0.0 0.0 0.00 0.00 0.07 93 1013.9
20260831203915 0 170 0.0 0.0 0.00 0.00 0.07 93 1014.1
20260831203554 0 343 0.0 0.0 0.00 0.00 0.07 93 1014.0
20260831203234 0 353 0.0 0.0 0.00 0.00 0.07 93 1014.2
20260831202914 0 347 0.0 0.0 0.00 0.00 0.07 93 1014.4
20260831202556 0 353 0.0 0.0 0.00 0.00 0.07 93 1014.0
20260831201915 0 5 0.0 0.0 0.00 0.00 0.07 93 1014.1
20260831201554 0 351 0.0 0.0 0.00 0.00 0.07 93 1014.1
20260831201234 0 0 0.0 0.0 0.00 0.00 0.07 92 1014.4
20260831200914 0 353 0.0 0.0 0.00 0.00 0.07 92 1014.0
20260831200553 0 343 0.0 0.0 0.00 0.00 0.07 92 1014.0
20260831200233 0 339 0.0 0.0 0.00 0.00 0.07 91 1014.2
20260831195913 0 331 0.0 0.0 0.00 0.03 0.07 91 1014.1
20260831195553 0 336 0.0 0.0 0.00 0.03 0.07 91 1014.0
20260831194914 0 184 0.0 0.0 0.00 0.03 0.07 91 1014.2
20260831194553 0 182 0.0 0.0 0.00 0.03 0.07 91 1014.3
20260831194234 0 267 0.0 0.0 0.00 0.03 0.07 91 1014.2
20260831193914 0 306 0.0 0.0 0.00 0.03 0.07 91 1014.6
20260831193553 0 270 0.0 0.9 0.07 0.03 0.07 92 1014.5
20260831193233 0 172 0.0 0.0 0.07 0.03 0.07 91 1014.4
20260831192912 0 307 0.0 0.0 0.07 0.03 0.07 91 1014.3
20260831192553 0 163 0.0 0.0 0.00 0.02 0.06 92 1014.4
20260831191913 0 159 0.0 0.0 0.07 0.02 0.06 92 1014.4
20260831191553 0 162 0.0 0.0 0.07 0.02 0.06 92 1014.6
20260831191232 0 306 0.0 0.0 0.07 0.01 0.04 93 1014.4
20260831190912 0 8 0.0 0.0 0.07 0.01 0.04 93 1014.7
20260831190552 0 353 0.0 0.0 0.07 0.01 0.04 93 1014.5
20260831190232 0 348 0.0 0.0 0.00 0.00 0.03 93 1014.6
20260831185911 0 3 0.0 0.0 0.00 0.01 0.03 93 1014.7
20260831185551 0 358 0.0 0.0 0.00 0.01 0.03 93 1014.8
20260831184914 0 349 0.0 0.0 0.00 0.01 0.03 93 1014.7
20260831184553 0 352 0.0 0.0 0.00 0.01 0.03 93 1014.6
20260831184233 0 351 0.0 0.0 0.00 0.01 0.03 92 1014.7
20260831183913 0 351 0.0 0.0 0.00 0.01 0.03 92 1014.8
20260831183551 0 349 0.0 0.0 0.00 0.01 0.03 92 1014.7
20260831183233 0 347 0.0 0.0 0.00 0.01 0.03 92 1014.8
20260831182911 0 343 0.0 0.0 0.07 0.01 0.03 91 1014.9
20260831182551 0 340 0.0 0.0 0.07 0.01 0.03 91 1014.7
20260831181912 0 338 0.0 0.0 0.00 0.00 0.02 91 1014.8
20260831181551 0 340 0.0 0.0 0.00 0.00 0.02 91 1014.7
20260831181231 0 269 0.0 0.0 0.00 0.00 0.02 91 1014.9
20260831180914 0 338 0.0 0.0 0.00 0.00 0.02 91 1015.0
20260831180550 0 338 0.0 0.0 0.00 0.00 0.02 91 1015.3
20260831180230 0 325 0.0 0.0 0.00 0.00 0.02 91 1015.0
20260831175911 0 340 0.0 0.0 0.00 0.02 0.02 92 1015.1
20260831175551 0 340 0.0 0.0 0.00 0.02 0.02 91 1015.3
20260831174912 0 333 0.0 0.0 0.07 0.02 0.02 90 1015.3
20260831174551 0 329 0.0 0.0 0.07 0.02 0.02 90 1015.4
20260831174230 0 309 0.0 0.9 0.07 0.02 0.02 90 1015.7
20260831173911 0 312 0.0 0.0 0.00 0.01 0.01 90 1015.7
20260831173550 0 267 1.7 1.7 0.00 0.01 0.01 90 1015.5
20260831173230 0 253 0.0 0.9 0.00 0.01 0.01 91 1015.5
20260831172909 0 272 0.9 0.9 0.00 0.01 0.01 91 1015.5
20260831172549 0 327 0.0 0.0 0.00 0.01 0.01 91 1015.4
20260831171911 0 358 0.0 0.0 0.00 0.01 0.01 92 1015.5
20260831171550 0 354 0.0 0.0 0.00 0.01 0.01 91 1015.7
20260831171230 0 343 0.0 0.0 0.07 0.01 0.01 90 1015.7
20260831170909 0 340 0.0 0.0 0.07 0.01 0.01 90 1015.6
20260831170549 0 327 0.0 0.0 0.07 0.01 0.01 90 1015.6
20260831170229 0 0 0.0 0.0 0.00 0.00 0.00 14.5
20260831165909 0 348 0.0 0.0 0.00 0.03 0.06 91 1015.7
20260831165549 0 320 0.9 0.9 0.00 0.03 0.06 90 1015.9
20260831164910 0 353 0.0 0.0 0.07 0.03 0.06 90 1015.9
20260831164550 0 330 0.0 0.0 0.00 0.02 0.04 90 1015.9
20260831164229 0 303 0.0 0.0 0.07 0.02 0.04 90 1016.1
20260831163909 0 202 1.7 3.5 0.07 0.02 0.04 89 1016.1
20260831163549 0 331 0.0 0.0 0.07 0.02 0.04 89 1016.0
20260831163229 0 242 1.7 1.7 0.00 0.01 0.03 89 1016.0
20260831162909 0 225 0.9 1.7 0.00 0.01 0.03 90 1016.0
20260831162549 0 197 0.0 0.9 0.00 0.01 0.03 90 1016.1
20260831161910 0 345 0.0 0.0 0.07 0.01 0.03 90 1016.0
20260831161549 0 331 0.0 0.0 0.07 0.01 0.03 90 1015.8
20260831161229 0 318 0.9 0.9 0.00 0.00 0.02 89 1016.2
20260831160909 0 315 0.9 0.9 0.00 0.00 0.02 89 1016.0
20260831160548 0 348 0.0 0.0 0.00 0.00 0.02 89 1016.0
20260831160229 0 316 0.0 0.0 0.00 0.00 0.02 89 1016.0
20260831155908 0 336 0.0 0.9 0.00 0.02 0.02 89 1016.0
20260831155548 0 347 0.0 1.7 0.00 0.02 0.02 89 1016.1
20260831154910 0 237 2.6 4.3 0.00 0.02 0.02 88 1016.1
20260831154549 0 303 0.0 0.0 0.00 0.02 0.02 89 1016.1
20260831154229 0 336 0.0 0.9 0.00 0.02 0.02 88 1016.2
20260831153909 0 279 1.7 2.6 0.07 0.02 0.02 88 1016.4
20260831153547 0 295 1.7 1.7 0.07 0.02 0.02 88 1016.4
20260831153228 0 334 0.9 1.7 0.07 0.02 0.02 88 1016.2
20260831152907 0 342 0.9 0.9 0.00 0.01 0.01 88 1016.3
20260831152547 0 333 1.7 1.7 0.00 0.01 0.01 87 1016.3
20260831151908 0 297 1.7 2.6 0.07 0.01 0.01 87 1016.1
20260831151547 0 191 0.9 1.7 0.07 0.01 0.01 86 1016.0
20260831151227 0 290 0.0 0.0 0.00 0.00 0.00 85 1016.1
20260831150907 0 182 2.6 2.6 0.00 0.00 0.00 84 1016.1
20260831150547 0 253 2.6 4.3 0.00 0.00 0.00 84 1016.1
20260831150226 0 295 1.7 3.5 0.00 0.00 0.00 84 1015.9
20260831145906 0 339 1.7 2.6 0.00 0.00 0.00 83 1016.0
20260831145546 0 270 4.3 6.1 0.00 0.00 0.00 83 1015.8
20260831144907 0 253 1.7 3.5 0.00 0.00 0.00 81 1015.8
20260831144546 0 204 0.0 1.7 0.00 0.00 0.00 81 1015.6
20260831144226 0 257 0.9 1.7 0.00 0.00 0.00 81 1015.8
20260831143906 0 189 4.3 7.0 0.00 0.00 0.00 82 1015.8
20260831143546 0 244 3.5 4.3 0.00 0.00 0.00 81 1015.5
20260831143225 0 162 0.9 1.7 0.00 0.00 0.00 81 1015.6
20260831142906 0 224 3.5 4.3 0.00 0.00 0.00 80 1015.2
20260831142546 0 231 3.5 6.1 0.00 0.00 0.00 81 1015.4
20260831141907 0 225 4.3 5.2 0.00 0.00 0.00 81 1015.4
20260831141546 0 200 2.6 4.3 0.00 0.00 0.00 83 1015.4
20260831141226 0 316 0.0 1.7 0.00 0.00 0.00 83 1015.1
20260831140906 0 180 1.7 2.6 0.00 0.00 0.00 84 1015.2
20260831140545 0 251 1.7 1.7 0.00 0.00 0.00 84 1014.9
20260831140225 0 170 0.0 0.0 0.00 0.00 0.00 84 1014.7
20260831135905 0 222 0.0 0.9 0.00 0.00 0.00 85 1014.9
20260831135545 0 169 0.9 1.7 0.00 0.00 0.00 84 1014.8
20260831134906 0 243 0.9 0.9 0.00 0.00 0.00 84 1014.7
20260831134545 0 266 0.0 1.7 0.00 0.00 0.00 83 1014.8
20260831134225 0 228 0.0 0.9 0.00 0.00 0.00 83 1014.7
20260831133906 0 187 0.0 0.9 0.00 0.00 0.00 82 1014.7
20260831133544 0 245 0.9 2.6 0.00 0.00 0.00 82 1014.5
20260831133224 0 170 1.7 3.5 0.00 0.00 0.00 82 1014.6
20260831132904 0 262 1.7 3.5 0.00 0.00 0.00 82 1014.4
20260831132544 0 170 0.9 0.9 0.00 0.00 0.00 83 1014.5
20260831131905 0 246 3.5 5.2 0.00 0.00 0.00 82 1014.5
20260831131544 0 275 1.7 1.7 0.00 0.00 0.00 83 1014.3
20260831131224 0 241 0.9 1.7 0.00 0.00 0.00 84 1014.4
20260831130904 0 230 2.6 4.3 0.00 0.00 0.00 83 1014.3
20260831130543 0 200 0.9 0.9 0.00 0.00 0.00 84 1014.2
20260831130223 0 218 3.5 4.3 0.00 0.00 0.00 84 1014.3
20260831125903 0 233 1.7 2.6 0.00 0.00 0.00 84 1014.0
20260831125543 0 233 1.7 2.6 0.00 0.00 0.00 84 1014.0
20260831124905 0 227 1.7 3.5 0.00 0.00 0.00 84 1014.1
20260831124544 0 196 2.6 4.3 0.00 0.00 0.00 83 1014.0
20260831124224 0 259 3.5 6.1 0.00 0.00 0.00 83 1014.2
20260831123904 0 298 0.0 0.9 0.00 0.00 0.00 82 1014.1
20260831123543 0 194 0.9 1.7 0.00 0.00 0.00 82 1013.9
20260831123223 0 282 1.7 1.7 0.00 0.00 0.00 82 1013.9
20260831122903 0 178 2.6 3.5 0.00 0.00 0.00 82 1013.8
20260831122543 0 178 2.6 3.5 0.00 0.00 0.00 82 1013.8
20260831121904 0 5 0.0 0.9 0.00 0.00 0.00 82 1013.5
20260831121543 0 290 1.7 1.7 0.00 0.00 0.00 82 1013.6
20260831121223 0 236 3.5 4.3 0.00 0.00 0.00 82 1013.7
20260831120903 0 223 2.6 4.3 0.00 0.00 0.00 83 1013.6
20260831120542 0 175 1.7 1.7 0.00 0.00 0.00 84 1013.8
20260831120222 0 299 0.0 0.0 0.00 0.00 0.00 84 1013.5
20260831115902 0 188 1.7 1.7 0.00 0.00 0.00 84 1013.5
20260831115542 0 245 2.6 3.5 0.00 0.00 0.00 84 1013.5
20260831114903 0 342 2.6 4.3 0.00 0.00 0.00 84 1013.2
20260831114542 0 187 0.9 1.7 0.00 0.00 0.00 84 1013.4
20260831114222 0 197 2.6 4.3 0.00 0.00 0.00 84 1013.3
20260831113902 0 148 0.9 0.9 0.00 0.00 0.00 84 1013.3
20260831113542 0 119 1.7 2.6 0.00 0.00 0.00 84 1013.2
20260831113221 0 233 0.9 1.7 0.00 0.00 0.00 83 1013.2
20260831112902 0 189 1.7 4.3 0.00 0.00 0.00 83 1013.1
20260831112541 0 317 1.7 1.7 0.00 0.00 0.00 82 1013.1
20260831111903 0 250 2.6 3.5 0.00 0.00 0.00 81 1013.1
20260831111542 0 269 2.6 4.3 0.00 0.00 0.00 81 1013.2
20260831111222 0 167 0.0 0.9 0.00 0.00 0.00 81 1013.1
20260831110902 0 261 2.6 4.3 0.00 0.00 0.00 80 1013.1
20260831110541 0 232 1.7 5.2 0.00 0.00 0.00 81 1013.5
20260831110221 0 250 3.5 7.0 0.00 0.00 0.00 81 1013.2
20260831105900 0 154 2.6 3.5 0.00 0.00 0.00 82 1013.1
20260831105540 0 342 1.7 1.7 0.00 0.00 0.00 82 1013.1
20260831104901 0 237 3.5 4.3 0.00 0.00 0.00 82 1013.2
20260831104541 0 257 1.7 2.6 0.00 0.00 0.00 82 1013.1
20260831104221 0 247 4.3 7.0 0.00 0.00 0.00 82 1013.1
20260831103901 0 226 4.3 6.1 0.00 0.00 0.00 82 1013.0
20260831103540 0 229 1.7 2.6 0.00 0.00 0.00 81 1013.0
20260831103220 0 245 2.6 4.3 0.00 0.00 0.00 81 1012.9
20260831102900 0 223 2.6 4.3 0.00 0.00 0.00 81 1012.9
20260831102540 0 240 5.2 7.0 0.00 0.00 0.00 81 1012.8
20260831101900 0 252 3.5 6.1 0.00 0.00 0.00 81 1012.9
20260831101540 0 249 6.1 10.4 0.00 0.00 0.00 81 1012.8
20260831101220 0 51 0.9 1.7 0.00 0.00 0.00 81 1012.9
20260831100900 0 237 2.6 6.1 0.00 0.00 0.00 81 1012.7
20260831100539 0 206 2.6 5.2 0.00 0.00 0.00 81 1012.6
20260831100219 0 248 6.1 8.7 0.00 0.00 0.00 80 1012.6
20260831095859 0 138 4.3 7.0 0.00 0.00 0.00 81 1012.7
20260831095539 0 213 2.6 4.3 0.00 0.00 0.00 81 1012.5
20260831094900 0 212 2.6 3.5 0.00 0.00 0.00 80 1012.6
20260831094539 0 181 2.6 4.3 0.00 0.00 0.00 80 1012.5
20260831094219 0 229 2.6 4.3 0.00 0.00 0.00 80 1012.3
20260831093859 0 238 4.3 7.8 0.00 0.00 0.00 79 1012.4
20260831093539 0 224 7.0 7.8 0.00 0.00 0.00 78 1012.3
20260831093219 0 195 4.3 7.8 0.00 0.00 0.00 78 1012.2
20260831092858 0 208 9.6 14.8 0.00 0.00 0.00 78 1012.6
20260831092538 0 197 2.6 4.3 0.00 0.00 0.00 79 1012.3
20260831091859 0 267 5.2 7.8 0.00 0.00 0.00 79 1012.4
20260831091539 0 161 3.5 5.2 0.00 0.00 0.00 79 1012.6
20260831091219 0 232 4.3 6.1 0.00 0.00 0.00 79 1012.3
20260831090859 0 204 4.3 6.1 0.00 0.00 0.00 79 1012.2
20260831090538 0 243 3.5 5.2 0.00 0.00 0.00 80 1012.5
20260831090218 0 216 9.6 13.9 0.00 0.00 0.00 78 1012.3
20260831085858 0 261 2.6 3.5 0.00 0.00 0.00 79 1012.2
20260831085538 0 223 5.2 8.7 0.00 0.00 0.00 78 1012.2
20260831084859 0 261 4.3 7.8 0.00 0.00 0.00 78 1012.1
20260831084538 0 239 8.7 12.2 0.00 0.00 0.00 78 1012.4
20260831084218 0 232 9.6 13.0 0.00 0.00 0.00 78 1012.4
20260831083858 0 243 4.3 7.0 0.00 0.00 0.00 78 1012.2
20260831083537 0 212 3.5 7.0 0.00 0.00 0.00 77 1012.1
20260831083217 0 214 5.2 8.7 0.00 0.00 0.00 77 1012.4
20260831082857 0 191 1.7 3.5 0.00 0.00 0.00 77 1012.5
20260831082537 0 162 0.9 1.7 0.00 0.00 0.00 77 1012.5
20260831081859 0 279 1.7 1.7 0.00 0.00 0.00 77 1012.4
20260831081537 0 232 3.5 4.3 0.00 0.00 0.00 77 1012.4
20260831081218 0 210 5.2 7.0 0.00 0.00 0.00 74 1012.4
20260831080858 0 237 4.3 5.2 0.00 0.00 0.00 74 1012.4
20260831080536 0 168 3.5 4.3 0.00 0.00 0.00 75 1012.2
20260831080216 0 227 8.7 11.3 0.00 0.00 0.00 74 1012.5
20260831075856 0 237 4.3 5.2 0.00 0.00 0.00 72 1012.7
20260831075536 0 175 2.6 3.5 0.00 0.00 0.00 73 1012.6
20260831074858 0 210 8.7 14.8 0.00 0.00 0.00 71 1012.7
20260831074538 0 239 3.5 4.3 0.00 0.00 0.00 71 1012.5
20260831074217 0 226 5.2 7.0 0.00 0.00 0.00 72 1012.6
20260831073858 0 203 6.1 10.4 0.00 0.00 0.00 72 1012.6
20260831073536 0 160 6.1 7.0 0.00 0.00 0.00 73 1012.6
20260831073217 0 224 3.5 6.1 0.00 0.00 0.00 74 1012.7
20260831072855 0 225 10.4 15.6 0.00 0.00 0.00 73 1012.8
20260831072536 0 230 7.8 13.0 0.00 0.00 0.00 72 1012.7
20260831071857 0 230 4.3 5.2 0.00 0.00 0.00 70 1012.7
20260831071536 0 264 4.3 5.2 0.00 0.00 0.00 71 1012.6
20260831071216 0 244 6.1 7.8 0.00 0.00 0.00 70 1012.9
20260831070856 0 163 2.6 3.5 0.00 0.00 0.00 71 1012.7
20260831070535 0 226 4.3 6.1 0.00 0.00 0.00 71 1012.8
20260831070215 0 267 10.4 14.8 0.00 0.00 0.00 70 1012.8
20260831065855 0 254 4.3 9.6 0.00 0.00 0.00 72 1012.9
20260831065535 0 224 6.1 9.6 0.00 0.00 0.00 72 1013.0
20260831064856 0 230 7.0 9.6 0.00 0.00 0.00 70 1012.9
20260831064535 0 295 1.7 6.1 0.00 0.00 0.00 70 1013.1
20260831064215 0 234 7.0 11.3 0.00 0.00 0.00 71 1013.1
20260831063855 0 270 5.2 7.0 0.00 0.00 0.00 70 1012.9
20260831063534 0 250 4.3 7.0 0.00 0.00 0.00 68 1013.0
20260831063214 0 210 5.2 8.7 0.00 0.00 0.00 69 1013.2
20260831062854 0 260 7.8 10.4 0.00 0.00 0.00 68 1013.0
20260831062534 0 239 4.3 7.8 0.00 0.00 0.00 70 1013.2
20260831061855 0 218 4.3 5.2 0.00 0.00 0.00 72 1013.2
20260831061534 0 254 5.2 7.0 0.00 0.00 0.00 71 1013.0
20260831061214 0 231 5.2 9.6 0.00 0.00 0.00 70 1013.3
20260831060855 0 156 5.2 8.7 0.00 0.00 0.00 70 1013.2
20260831060533 0 226 9.6 12.2 0.00 0.00 0.00 70 1013.1
20260831060213 0 183 4.3 7.0 0.00 0.00 0.00 71 1013.6
20260831055853 0 294 7.0 12.2 0.00 0.00 0.00 70 1013.4
20260831055533 0 218 5.2 9.6 0.00 0.00 0.00 70 1013.4
20260831054855 0 164 3.5 5.2 0.00 0.00 0.00 71 1013.7
20260831054533 0 199 5.2 7.0 0.00 0.00 0.00 71 1013.9
20260831054214 0 192 8.7 12.2 0.00 0.00 0.00 69 1014.0
20260831053853 0 222 8.7 14.8 0.00 0.00 0.00 70 1013.8
20260831053533 0 261 3.5 4.3 0.00 0.00 0.00 73 1013.9
20260831053213 0 237 8.7 12.2 0.00 0.00 0.00 72 1014.2
20260831052853 0 194 3.5 5.2 0.00 0.00 0.00 73 1014.4
20260831052533 0 197 4.3 7.0 0.00 0.00 0.00 73 1014.3
20260831051533 0 247 5.2 7.8 0.00 0.00 0.00 72 1014.4
20260831051213 0 231 7.0 11.3 0.00 0.00 0.00 73 1014.4
20260831050853 0 209 5.2 8.7 0.00 0.00 0.00 71 1014.5
20260831050532 0 231 6.1 8.7 0.00 0.00 0.00 71 1014.5
20260831050212 0 75 3.5 5.2 0.00 0.00 0.00 73 1014.6
20260831045852 0 237 5.2 7.0 0.00 0.00 0.00 72 1014.8
20260831045532 0 236 5.2 7.0 0.00 0.00 0.00 71 1014.5
20260831044853 0 261 7.0 9.6 0.00 0.00 0.00 71 1014.7
20260831044532 0 208 5.2 12.2 0.00 0.00 0.00 72 1014.6